Content
SEND FEEDBACK

Daily
Averages
Monthly
Summary
United States of America

SOUTH LAKE TAHOE - AIRPORT, CALIFORNIA


Home > North America > United States > California
Elevation: 1905 meters     Latitude: 38 54N     Longitude: 120 00W

WEATHER
 
SELECT A DAY
Number of Records: 178,607;   Date Range: 1/1/95 - 12/18/14
 
SHARE

PRINT THIS DATA

[ ← Previous Day ]
WEATHER ALMANAC - 20 FEBRUARY, 2013
[ Next Day → ]
[ °F ]   °C
Weather ElementAverageHighLow
Temperature-3.8 °C2.2 °C (1:53 pm)-10.6 °C (6:53 am)
Dewpoint-10 °C-6.7 °C (1:53 am)-14.4 °C (12:53 pm)
Humidity65.9 %86 % (12:21 am)31 % (12:53 pm)
Barometer1009.5 hPa1016.3 hPa (7:53 pm)1003.4 hPa (12:21 am)
Wind Speed5.3 km/h16.7 km/h (9:53 am)
Wind Gust31.5 km/h (12:53 pm)
Weather ElementAverage
Visibility11.7 km
Wind DirectionNNE (16.1 °)

Weather ElementTotal
Precipitation1.27 mm
Heating Degree Days22.6 (Base 18.3)
Averaged from 28 records on 20 February, 2013
WEATHER CONDITIONS BREAKOUT
WIND DIRECTION BREAKOUT
WEATHER BY HOUR - 20 FEBRUARY, 2013
[ °F ]   °C
Local TimeTemperatureDewpointHumidityBarometerVisibilityWind DirectionWind SpeedGust SpeedPrecipitationEventsConditions
12:21 AM-6 °C-8 °C86 %1003.4 hPa1.3 kmCalm0.25 mmSnowLight Snow
12:43 AM-5 °C-8 °C80 %1003.7 hPa3.2 kmCalm0.25 mmSnowLight Snow
12:48 AM-5 °C-8 °C80 %1003.7 hPa4.8 kmCalm0.25 mmSnowLight Snow
12:53 AM-5 °C-7.2 °C85 %1004.7 hPa6.4 kmCalm0.25 mmSnowLight Snow
1:00 AM-5 °C-7 °C86 %1004.1 hPa11.3 kmCalm0 mmOvercast
1:13 AM-6 °C-8 °C86 %1004.1 hPa8 kmCalm0 mmSnowLight Snow
1:25 AM-5 °C-8 °C80 %1004.4 hPa4.8 kmCalm0 mmSnowLight Snow
1:29 AM-6 °C-8 °C86 %1004.4 hPa2.9 kmCalm0 mmSnowLight Snow
1:53 AM-3.9 °C-6.7 °C81 %1005.8 hPa4.8 kmNorth (10°)9.3 km/h0 mmSnowLight Snow
1:56 AM-4 °C-7 °C80 %1004.7 hPa8 kmNNE (30°)14.8 km/h0 mmSnowLight Snow
2:53 AM-3.9 °C-8.3 °C72 %1006.8 hPa16.1 kmVariable7.4 km/h0 mmOvercast
4:53 AM-10 °C-12.2 °C84 %1010.2 hPa16.1 kmCalmPartly Cloudy
5:53 AM-5 °C-10 °C68 %1009.8 hPa16.1 kmNNE (30°)14.8 km/hPartly Cloudy
6:53 AM-10.6 °C-13.3 °C81 %1012.9 hPa16.1 kmCalmClear
8:53 AM-3.3 °C-10.6 °C58 %1012.9 hPa16.1 kmNNE (30°)11.1 km/hClear
9:53 AM-1.7 °C-11.1 °C49 %1012.9 hPa16.1 kmNorth (10°)16.7 km/h29.6 km/hClear
10:53 AM-0.6 °C-12.8 °C40 %1012.9 hPa16.1 kmNE (40°)16.7 km/hClear
11:53 AM0.6 °C-13.3 °C35 %1011.9 hPa16.1 kmNNE (20°)16.7 km/hClear
12:53 PM1.1 °C-14.4 °C31 %1011.2 hPa16.1 kmNNE (20°)14.8 km/h31.5 km/h0.25 mmClear
1:53 PM2.2 °C-12.2 °C34 %1010.2 hPa16.1 kmCalmClear
2:53 PM1.7 °C-12.2 °C35 %1010.5 hPa16.1 kmNE (40°)13 km/hClear
3:53 PM1.7 °C-12.8 °C34 %1011.5 hPa16.1 kmNE (40°)9.3 km/hClear
5:53 PM-2.2 °C-10.6 °C53 %1012.9 hPa8 kmCalmHaze
6:53 PM-2.8 °C-11.1 °C53 %1015.2 hPa11.3 kmSouth (180°)5.6 km/hPartly Cloudy
7:53 PM-3.9 °C-10 °C63 %1016.3 hPa14.5 kmCalmClear
8:53 PM-5 °C-9.4 °C72 %1014.2 hPa16.1 kmCalmClear
9:53 PM-5.6 °C-9.4 °C75 %1014.2 hPa16.1 kmCalmClear
11:53 PM-7.2 °C-10.6 °C77 %1013.5 hPa16.1 kmCalmClear
Hourly data recorded from KTVL, located 0 kilometers away from South Lake Tahoe - Airport, California







STORIES FROM OUR PARTNERS